Location: Unspecified
(52.0000°N, 4.4000°E)
Time: 20:04:20
(UTC+00:00)

Terra - Pass Details

Date: 14 May 2025
Orbit: 690 x 691 km, 98.0° (Epoch: 20 June)

Event Time Altitude Azimuth Distance (km) Brightness Sun altitude
Exits shadow 20:49:36 - 181° (S) 2,540 4.3 -10.2°
Reaches altitude 10° 20:50:37 10° 184° (S) 2,140 3.9 -10.3°
Maximum altitude 20:55:11 51° 261° (W) 874 2.5 -10.7°
Drops below altitude 10° 20:59:47 10° 337° (NNW) 2,156 5.7 -11.1°
Sets 21:02:06 0° 343° (NNW) 3,077 6.6 -11.4°
